This demonstration page uses our WeatherBlox Daily Observations layout. Learn more.

Left ArrowRight Arrow

Hourly Observations for September 27, 2020

Temp ( °F °C ) Dew Point ( °F °C ) Humidity (%) Winds ( mph kmh ) Pressure ( in mb ) Visibility ( mi km ) Precip ( " mm )
12:53 am 00:53 Clear 73 22.8 61 16.1 66 66 SE 8 13 29.65 1004 10 16 0.00 0.00
1:53 am 01:53 Clear 70 21.1 61 16.1 73 73 SE 6 9 29.65 1004 10 16 0.00 0.00
2:53 am 02:53 Clear 69 20.6 61 16.1 76 76 SSE 7 11 29.64 1004 10 16 0.00 0.00
3:53 am 03:53 Clear 67 19.4 61 16.1 81 81 SE 6 9 29.63 1004 10 16 0.00 0.00
4:53 am 04:53 Clear 64 17.8 59 15 84 84 Calm 29.64 1004 10 16 0.00 0.00
5:53 am 05:53 Clear 60 15.6 56 13.3 86 86 N 7 11 29.65 1004 8 13 0.00 0.00
6:53 am 06:53 Clear 60 15.6 55 12.8 84 84 Calm 29.66 1004 10 16 0.00 0.00
7:53 am 07:53 Sunny 57 13.9 54 12.2 90 90 N 6 9 29.69 1005 9 14 0.00 0.00
8:04 am 08:04 Partly Cloudy 57 13.9 54 12.2 90 90 N 6 9 29.77 1008 8 13 0.00 0.00
8:53 am 08:53 Sunny 63 17.2 58 14.4 84 84 NNW 3 6 29.71 1006 7 11 0.00 0.00
9:53 am 09:53 Sunny 76 24.4 59 15 56 56 Calm 29.69 1005 10 16 0.00 0.00
10:53 am 10:53 Sunny 88 31.1 44 6.7 22 22 WNW 7 11 29.69 1005 10 16 0.00 0.00
11:53 am 11:53 Sunny 96 35.6 37 2.8 13 13 NW 14 22 29.68 1005 10 16 0.00 0.00
12:53 pm 12:53 Sunny 98 36.7 36 2.2 11 11 NNW 15 24 29.67 1005 10 16 0.00 0.00
1:53 pm 13:53 Sunny 101 38.3 35 1.7 10 10 WNW 10 17 29.65 1004 10 16 0.00 0.00
2:53 pm 14:53 Sunny 103 39.4 33 0.6 9 9 NNW 14 22 29.62 1003 10 16 0.00 0.00
3:53 pm 15:53 Sunny 103 39.4 33 0.6 9 9 WNW 16 26 29.59 1002 10 16 0.00 0.00
4:53 pm 16:53 Sunny 104 40 34 1.1 9 9 NW 17 28 29.58 1002 10 16 0.00 0.00
5:53 pm 17:53 Sunny 103 39.4 33 0.6 9 9 NNE 7 11 29.58 1002 10 16 0.00 0.00
6:53 pm 18:53 Sunny 100 37.8 33 0.6 10 10 NE 6 9 29.59 1002 10 16 0.00 0.00
7:53 pm 19:53 Clear 94 34.4 34 1.1 12 12 Calm 29.62 1003 10 16 0.00 0.00
8:53 pm 20:53 Clear 89 31.7 33 0.6 14 14 SSE 5 7 29.63 1004 10 16 0.00 0.00
9:53 pm 21:53 Clear 86 30 41 5 20 20 NE 21 33 29.68 1005 10 16 0.00 0.00
10:53 pm 22:53 Clear 82 27.8 50 10 33 33 ENE 21 33 29.72 1007 10 16 0.00 0.00
11:18 pm 23:18 Mostly Cloudy with Haze 78 25.6 57 13.9 48 48 NE 30 48 29.75 1007 4 6 0.00 0.00
11:53 pm 23:53 Cloudy with Haze 70 21.1 55 12.8 59 59 NE 29 46 29.82 1010 4 6 0.00 0.00

Powered by AerisWeather